This is the latest recevied weather packets stored in our database for station/object KD9WYV. If no packets are shown the sender has not sent any weather packets the latest 1 day(s).
| Time | Temp. | Humidity | Pressure | Rain* | Wind** | Luminosity | Snow |
|---|---|---|---|---|---|---|---|
| 1778012388 | 10.56° C | 96% | 1008.5 hPa | 1.27 mm | 1.34 m/s, 348° | 40 W/m² | - |
| 1778012086 | 10.56° C | 96% | 1008.6 hPa | 1.27 mm | 0.89 m/s, 301° | 36 W/m² | - |
| 1778011783 | 11.11° C | 96% | 1008.7 hPa | 1.27 mm | 1.34 m/s, 344° | 31 W/m² | - |
| 1778011481 | 11.11° C | 96% | 1008.6 hPa | 1.78 mm | 1.79 m/s, 331° | 38 W/m² | - |
| 1778011176 | 11.11° C | 96% | 1008.8 hPa | 1.78 mm | 1.34 m/s, 359° | 52 W/m² | - |
| 1778010874 | 11.11° C | 96% | 1008.5 hPa | 0 mm | 0.89 m/s, 329° | 43 W/m² | - |
| 1778010571 | 11.11° C | 96% | 1008.5 hPa | 0 mm | 0.45 m/s, 28° | 56 W/m² | - |
| 1778010269 | 11.11° C | 96% | 1008.6 hPa | 0 mm | 1.79 m/s, 353° | 43 W/m² | - |
| 1778009968 | 11.11° C | 96% | 1008.7 hPa | 1.27 mm | 1.79 m/s, 330° | 31 W/m² | - |
| 1778009666 | 11.11° C | 95% | 1008.5 hPa | 3.05 mm | 0.45 m/s, 79° | 66 W/m² | - |
| 1778009364 | 11.11° C | 95% | 1008.5 hPa | 4.83 mm | 0.45 m/s, 349° | 54 W/m² | - |
| 1778009062 | 11.11° C | 95% | 1008.5 hPa | 4.32 mm | 0.89 m/s, 80° | 73 W/m² | - |
| 1778008759 | 11.11° C | 95% | 1008.6 hPa | 3.05 mm | 1.34 m/s, 3° | 50 W/m² | - |
| 1778008458 | 11.11° C | 95% | 1008.6 hPa | 3.56 mm | 1.79 m/s, 9° | 95 W/m² | - |
| 1778008154 | 11.11° C | 94% | 1008.5 hPa | 3.05 mm | 0 m/s | 60 W/m² | - |
| 1778007850 | 11.11° C | 94% | 1008.8 hPa | 3.05 mm | 0.45 m/s, 347° | 113 W/m² | - |
| 1778007545 | 11.11° C | 94% | 1008.8 hPa | 3.05 mm | 0 m/s | 132 W/m² | - |
| 1778007242 | 11.11° C | 94% | 1008.6 hPa | 3.05 mm | 0 m/s | 124 W/m² | - |
| 1778006938 | 11.11° C | 94% | 1008.5 hPa | 3.05 mm | 0.89 m/s, 65° | 214 W/m² | - |
| 1778006635 | 11.67° C | 95% | 1008.3 hPa | 1.27 mm | 0.89 m/s, 50° | 118 W/m² | - |
| 1778006332 | 11.67° C | 95% | 1008.2 hPa | 1.78 mm | 1.79 m/s, 122° | 174 W/m² | - |
| 1778006029 | 11.67° C | 94% | 1008.4 hPa | 3.05 mm | 1.79 m/s, 83° | 195 W/m² | - |
| 1778005726 | 11.67° C | 94% | 1008.8 hPa | 3.05 mm | 0.89 m/s, 46° | 138 W/m² | - |
| 1778005423 | 11.67° C | 94% | 1009 hPa | 3.05 mm | 0 m/s | 126 W/m² | - |
| 1778005119 | 11.67° C | 94% | 1008.8 hPa | 3.05 mm | 0.89 m/s, 69° | 120 W/m² | - |
* Rain latest hour (hover to see other rain measurements)
** Current wind speed in m/s (hover to see current wind gust speed)